DECAYED

COSMOS 1408 DEB, 49537 (Decayed)

Orbit data source: Space-Track

COSMOS 1408 DEB, 49537 was space debris in LEO originally from a launch on Thu, 16 Sep 1982 UTC launched from the Plesetsk Missile And Space Complex (PKMTR). Cosmos 1408 debris is a result of deliberate destruction of the defunct Soviet-era reconnaissance satellite Cosmos 1408 by a Russian anti-satellite missile in 2021. This event added many debris pieces to Earth's orbit, complicating space navigation and increasing collision risks for operational satellites and the International Space Station. The Cosmos 1408 debris has heightened concerns about space safety and militarization, emphasizing the urgent need for comprehensive space debris management strategies.

Not visible in the next 10 days
Identifier
49537, 1982-092AA
Orbit
Decayed
Country
Flag of CISCIS
Related business
Manufacturer
Yuzhnoe
Mission
Decayed spacecraft
Bus & Motor
Unknown
Mass
Unknown
Launch date (UTC)
1982-09-16 (44 years ago)
Launch vehicle
Unknown
Launch site
Plesetsk Missile And Space Complex (PKMTR)
Object type
Payload
Rocket body
Debris
Shape & HBR
Unknown shape, 0.9 m
Radar Cross Section
Large (>1 m²)

Expand to show TLE details & history
Last TLE update: 7 months ago

TLE from 7 months ago
0 COSMOS 1408 DEB
1 49537U 82092AA  25335.43705615  .05878558 -12521-5  94223-3 0  9994
2 49537  82.5092 107.1368 0012773 299.8571  60.1455 16.33498888224033
Epoch: 2025-12-01T10:29Z
TLE epoch observation values (Epoch: 2025-12-01T10:29:21.651Z)
Latitude
0.00002°
Longitude
-120.73998°
Altitude
182.229 km
Speed
7.799 km/s
True Right ascension
07h 08m 32s
True Declination
0° 00' 00"
Sunlit
Object was in full shadow at epoch
Visualization orbit readout
Latitude
Unknown
Longitude
Unknown
Altitude
Unknown
Speed
Unknown
Apparent Right ascension
Unknown
Apparent Declination
Unknown
Sunlit
N/A
Visualization observer readout
Local Sidereal Time
21:37:20
Azimuth
Unknown
Elevation
Unknown
Doppler factor
Unknown
Orbital elements
Apogee altitude
188.35 km
Perigee altitude
171.597 km
Semi-major axis
6,558.111 km
Eccentricity
0.00128
Inclination
82.5092°
RAAN
107.1368°
Arg. of periapsis
299.8571°
True anomaly
60.27254°
Mean anomaly
60.1455°
Eccentric anomaly
60.20901°
Mean motion
4.08672 °/min
Orbital period
88.09 mins
BSTAR
0.00094223

Documentation

Showing up to 5 results
|